Tracking 19477 objects as of 16-Jan-2019
HD Live streaming from Space Station
objects crossing your sky now

COSMOS 1341

Track COSMOS 1341 now!
COSMOS 1341 is classified as:


NORAD ID: 13080
Int'l Code: 1982-016A
Perigee: 3,017.4 km
Apogee: 37,372.2 km
Inclination: 67.5 °
Period: 718.2 minutes
Semi major axis: 26565 km
RCS: 8.091 m2 (large)
Launch date: March 3, 1982
Source: Commonwealth of Independent States (former USSR) (CIS)
Launch site: PLESETSK MISSILE AND SPACE COMPLEX (PKMTR)
aabbcc
Your satellite tracking list
Your tracking list is empty




NASA's NSSDC Master Catalog

Two Line Element Set (TLE):
1 13080U 82016A   19015.29331055 -.00000380 +00000-0 +00000-0 0  9995
2 13080 067.5183 185.6606 6465995 027.5300 355.2875 02.00502009180403
Source of the keplerian elements: AFSPC